Theta_e
302 301 301 300 300 302 302 302 302 302 302 298 297 298 294 295 292 306 304 304 303 294 286 291 289 287 288 294 293 293 292 292 294 295 295 291 291 290 290 292 290 290 288 288 287 287 287 288 288 292 293 293 296 297 298 300 299 296 292 293 293 305 279 282 281 284 286 292 296 298 298 297 294 294 294 292 290 287 282 278 280 279 282 280 277 276 283
301 301 300 300 301 302 301 301 301 301 301 299 298 294 293 295 293 300 305 306 304 293 282 284 283 286 291 293 292 296 296 296 294 294 292 292 291 290 291 291 291 290 289 289 287 289 281 290 289 289 293 292 298 297 298 301 299 296 292 289 294 285 283 280 278 280 282 282 285 289 293 296 291 290 291 294 293 291 286 284 281 280 281 279 280 277 284
301 300 300 300 302 301 301 300 300 301 302 302 298 291 294 292 298 302 302 307 304 291 291 286 280 286 289 292 292 294 295 297 297 295 292 293 291 291 289 291 290 289 289 289 291 292 287 286 292 292 293 293 297 297 298 302 300 305 304 308 297 287 284 280 275 275 273 271 271 277 282 287 289 291 292 293 291 288 287 284 279 278 281 283 280 282 290
301 301 300 301 301 301 301 300 301 301 301 302 299 295 293 292 285 294 298 301 300 298 300 294 289 286 288 286 290 294 291 294 293 293 292 292 293 290 292 290 289 288 289 288 289 290 292 288 287 288 290 292 295 295 297 301 302 308 310 304 296 287 287 280 278 276 275 276 278 285 288 286 284 289 289 290 290 288 286 282 277 278 280 281 286 291 292
301 301 300 301 301 301 301 300 301 302 301 302 298 296 294 296 288 288 288 296 295 292 295 295 294 286 290 284 290 289 290 292 293 294 290 292 292 290 290 290 287 286 288 286 287 289 290 292 290 290 290 293 294 295 295 296 303 312 304 303 289 285 285 288 286 286 285 284 286 289 289 286 287 286 286 289 290 288 282 278 282 284 285 279 287 295 294
301 300 300 301 301 301 300 300 300 301 301 302 300 292 295 289 291 296 296 290 285 288 289 295 293 295 295 289 291 289 289 289 285 290 292 292 291 287 289 290 289 287 286 286 284 287 286 287 285 291 291 292 288 292 294 293 299 302 296 297 290 283 283 289 287 287 289 289 289 290 289 289 289 289 288 289 289 289 286 285 287 284 279 282 292 296 293
301 300 300 301 301 300 300 300 301 302 301 302 297 290 296 298 296 296 300 289 290 291 292 296 294 293 293 288 291 288 288 289 291 290 290 289 289 288 281 286 289 290 289 285 283 283 280 282 287 287 287 287 286 286 289 295 293 294 291 291 289 286 282 288 289 288 288 288 288 289 288 288 288 287 289 290 289 289 290 289 290 288 286 292 294 291 288
300 300 300 300 301 300 300 300 300 302 302 301 296 294 292 294 293 291 299 297 293 293 292 292 292 288 295 287 289 290 289 289 290 291 288 283 288 291 288 288 288 290 290 287 284 286 285 286 280 288 287 286 286 285 285 288 292 292 290 290 290 288 284 292 286 283 284 287 288 288 287 287 286 287 288 288 290 291 292 292 292 294 291 289 289 287 285
300 300 300 300 300 300 300 300 301 302 302 296 294 295 298 299 300 301 296 291 290 293 292 290 288 285 287 287 289 289 290 289 291 289 291 289 287 289 288 289 289 289 288 288 288 290 288 288 289 288 286 283 290 285 286 290 288 290 289 289 287 286 283 284 281 281 282 287 285 286 287 287 286 285 286 286 288 287 289 288 290 291 288 289 288 286 285
300 300 300 300 299 300 300 300 301 302 303 296 296 293 304 303 305 305 299 288 293 290 289 288 288 284 285 290 288 288 289 291 288 283 290 291 292 291 290 289 289 286 287 286 288 290 289 289 289 289 289 288 288 289 290 290 291 287 288 288 285 282 283 281 279 283 280 286 286 286 285 284 282 282 285 287 290 292 291 292 293 293 293 288 287 288 289
300 300 300 299 299 300 300 300 301 302 301 295 294 295 298 295 293 297 299 290 283 285 286 285 286 289 288 294 290 290 289 290 289 284 285 292 291 292 291 289 287 283 286 290 292 291 290 290 290 289 292 294 293 292 294 294 292 290 288 285 285 284 283 279 280 280 281 284 284 281 278 276 279 287 290 290 288 290 288 287 289 291 292 287 289 288 290
299 300 300 300 300 300 300 300 301 301 302 300 299 295 298 300 298 298 290 286 285 286 286 283 287 290 291 291 290 289 289 290 290 289 288 289 291 291 290 288 286 284 292 292 290 290 292 291 291 292 294 294 294 294 294 293 293 293 290 288 283 282 280 280 280 282 282 285 283 278 273 274 286 291 292 293 293 291 289 289 289 289 289 289 288 288 288
299 300 300 300 301 301 300 301 301 301 303 300 299 294 300 302 296 295 295 291 285 286 284 286 289 291 291 291 289 288 290 290 291 291 290 289 290 291 293 289 286 291 294 289 289 287 285 285 283 285 287 287 289 293 292 292 291 292 292 290 286 281 282 279 278 278 280 281 278 274 272 283 289 290 291 293 293 291 291 287 289 290 290 289 287 288 287
299 300 300 300 300 300 301 301 301 302 302 302 298 298 300 299 295 296 295 287 287 287 289 285 286 287 289 288 287 288 288 288 286 289 289 291 289 291 293 292 293 292 290 289 286 283 281 278 278 279 283 280 280 282 286 288 290 290 290 291 289 287 282 281 281 278 276 277 279 279 284 284 286 285 286 288 285 287 286 283 285 290 290 289 287 287 287
299 299 299 300 300 300 301 301 302 302 302 303 300 300 300 300 298 296 297 295 288 286 283 282 285 287 287 287 286 284 284 284 285 285 288 292 290 293 292 291 289 289 287 287 281 282 279 277 278 276 277 276 273 276 281 282 285 288 288 288 288 286 284 279 281 279 279 278 277 279 278 277 282 285 289 291 291 292 291 288 284 291 290 291 288 286 287
299 299 299 300 300 301 301 301 302 302 302 303 301 300 300 300 300 299 296 294 290 282 285 288 289 289 285 286 287 285 283 278 283 281 283 284 289 290 291 291 292 290 290 285 281 278 276 278 274 270 272 272 278 277 277 278 281 286 286 288 288 287 285 282 283 278 277 276 275 276 275 277 283 285 288 290 291 292 290 287 282 289 291 291 289 287 288
298 299 299 300 300 301 301 302 302 303 303 304 300 300 298 301 299 297 295 295 294 286 290 291 290 288 284 284 286 286 284 284 282 282 281 282 288 288 290 290 290 291 287 283 280 280 280 276 276 274 272 279 278 274 279 275 274 277 283 285 284 282 277 277 280 276 274 276 274 273 276 277 283 286 287 289 292 291 288 280 281 288 291 291 290 288 288
298 299 299 300 300 301 301 302 302 303 304 305 302 299 299 301 301 300 297 295 287 283 285 290 290 284 284 284 284 288 287 286 287 283 282 285 285 289 289 289 288 291 291 284 280 277 275 272 275 274 275 280 281 278 272 275 272 275 277 279 277 277 278 277 277 274 276 278 275 278 280 285 286 286 288 290 291 290 282 279 283 289 292 291 290 289 290
298 299 299 300 300 301 301 302 303 303 304 305 304 301 300 301 301 301 299 296 289 282 288 290 292 289 291 292 289 290 291 290 286 284 283 280 287 290 290 291 290 286 287 281 278 277 277 279 279 276 276 276 278 276 278 276 275 279 278 276 278 274 276 279 276 275 273 273 275 276 279 285 287 287 289 291 288 282 281 285 290 292 292 292 292 289 289
298 299 299 300 300 301 302 302 303 304 304 305 304 298 300 301 302 301 298 291 285 283 286 289 291 291 292 290 287 286 289 288 285 283 277 282 287 289 285 284 287 285 282 280 281 279 276 277 277 280 275 276 279 282 277 278 283 280 278 279 276 277 280 277 274 276 277 276 276 276 274 282 288 288 288 290 284 284 287 289 290 291 290 290 289 289 288
298 299 299 300 301 301 302 303 304 304 305 306 305 300 298 301 301 302 302 295 290 281 283 289 291 291 292 292 294 291 288 288 286 286 284 285 289 283 279 277 282 283 281 279 279 279 276 277 279 277 281 280 282 282 277 276 279 284 282 280 281 284 279 277 277 280 274 272 272 274 281 283 289 288 283 286 289 290 290 289 286 289 289 288 288 288 289
298 299 299 300 301 302 303 303 304 304 305 305 305 302 296 299 301 302 303 300 291 284 288 288 290 291 293 293 294 294 295 294 293 291 288 286 287 285 282 283 284 284 285 283 281 280 282 279 281 278 277 280 281 277 279 274 274 280 284 283 276 284 282 283 278 281 274 273 277 283 287 288 290 290 289 290 291 292 291 289 288 288 288 290 288 288 289
298 299 300 300 301 302 302 303 304 304 305 305 304 301 297 297 298 302 302 295 293 289 289 287 287 289 292 293 295 296 295 296 296 292 292 290 286 286 285 285 288 290 289 285 283 282 281 281 276 280 280 279 278 277 280 277 275 278 277 285 282 286 287 287 284 282 286 287 287 288 288 288 288 290 291 290 290 291 291 289 288 289 290 290 289 289 289
298 299 300 300 301 302 302 303 304 304 304 305 304 301 299 299 299 297 296 289 284 286 287 287 286 284 285 291 294 292 294 296 298 297 294 294 285 285 287 290 291 290 288 290 286 286 281 279 283 282 280 282 282 279 277 278 280 283 282 281 284 286 286 284 281 283 281 277 286 285 286 288 289 289 290 291 291 290 291 290 290 290 290 290 291 290 290
299 299 300 300 301 302 302 303 304 304 305 304 305 304 303 300 299 298 291 286 283 279 280 281 282 291 292 291 292 292 293 298 299 296 294 294 293 288 287 293 294 290 289 291 287 287 282 282 282 280 280 284 285 280 283 282 281 286 278 281 282 280 289 284 284 283 281 280 284 286 288 289 290 289 288 288 289 291 291 292 292 292 292 292 292 292 291
299 299 300 300 301 302 302 303 303 304 304 305 305 301 298 297 298 298 293 290 285 282 282 280 286 292 290 294 293 293 296 296 298 299 297 296 297 298 297 295 294 294 293 292 291 286 283 283 283 283 282 283 288 282 281 284 284 283 281 278 281 284 289 281 284 281 283 286 286 286 287 287 288 289 290 290 290 290 291 291 291 291 291 291 292 292 291
299 299 300 300 301 302 302 303 303 304 304 304 303 301 299 299 299 298 290 288 287 282 280 282 282 288 293 292 294 294 296 296 297 298 299 299 299 298 296 293 291 291 293 292 289 286 285 284 283 283 284 283 286 284 284 284 282 278 277 283 285 285 281 285 284 280 280 281 283 286 281 280 285 288 289 290 292 292 291 291 290 290 290 290 290 290 292
299 299 300 300 301 302 302 303 303 304 304 304 304 301 300 297 299 299 295 291 288 283 282 279 284 288 291 293 295 293 295 296 295 295 295 296 296 295 292 291 290 290 287 288 287 286 285 285 284 283 282 285 284 283 282 282 281 281 280 282 283 282 284 284 281 281 280 285 288 289 287 286 287 288 291 292 293 292 290 289 289 290 291 291 290 289 290
299 300 300 301 301 302 302 303 303 304 304 304 298 296 297 299 298 300 302 296 289 285 282 284 286 286 285 289 294 293 294 294 294 293 293 293 293 292 292 291 290 286 286 284 283 283 283 282 281 283 284 286 284 280 278 278 278 277 280 284 284 285 287 288 288 288 288 290 289 290 288 285 288 290 291 292 293 292 290 291 291 290 290 291 291 291 289
299 300 301 301 302 302 302 302 303 304 304 299 292 288 287 294 293 298 300 301 291 289 284 283 282 285 289 292 291 292 292 294 294 293 292 291 291 290 290 290 289 289 288 285 285 282 283 283 280 283 286 287 282 276 273 279 277 280 284 285 287 289 291 291 292 289 286 291 291 291 291 290 291 291 292 292 293 293 290 290 290 290 290 291 290 289 289
300 300 301 301 302 302 302 303 304 304 303 293 289 286 283 284 291 298 301 300 293 288 282 283 284 282 285 291 290 290 291 293 292 291 291 290 289 289 291 292 288 289 286 284 283 283 281 281 278 282 287 288 279 273 278 276 275 279 283 284 285 287 288 289 291 292 291 291 292 292 292 291 291 291 290 291 292 292 290 290 292 292 290 289 288 287 286
300 300 301 301 302 302 302 303 303 303 297 293 289 287 287 289 294 299 301 301 294 291 284 283 282 282 281 284 290 292 292 292 291 288 287 289 291 291 291 290 288 289 287 282 283 281 282 279 281 282 283 286 284 275 278 277 278 278 283 285 287 288 289 289 290 291 293 293 291 289 288 288 290 288 287 290 290 290 289 289 289 290 291 289 287 286 286
300 300 301 301 302 302 303 304 304 303 296 298 303 303 303 304 304 303 301 296 291 286 282 280 279 279 280 285 289 291 293 289 289 285 289 289 289 287 287 285 286 287 292 287 282 281 282 278 279 282 283 282 278 276 278 276 279 282 284 286 286 288 288 290 291 291 291 292 291 287 285 287 288 288 289 288 288 288 288 288 286 287 287 287 286 286 285
300 300 301 301 302 303 303 304 304 304 301 295 292 293 297 304 300 303 296 291 289 285 282 282 279 278 281 283 285 289 291 284 285 283 283 289 286 285 284 283 286 283 286 283 282 282 282 282 281 278 282 280 277 279 277 280 283 284 285 285 286 287 288 288 288 288 288 287 288 288 288 288 288 289 288 288 287 287 287 285 286 286 284 285 284 284 285
300 301 301 302 302 303 303 303 295 296 293 294 296 294 294 304 304 304 300 290 287 283 281 281 278 278 280 278 278 286 289 288 286 284 284 287 286 287 284 283 282 283 284 286 281 277 279 281 282 282 278 277 278 277 276 280 283 284 284 285 285 286 287 287 285 286 285 287 288 287 288 288 288 287 287 287 287 287 286 285 284 285 284 282 283 283 283
300 301 301 302 303 303 297 299 294 292 291 292 292 299 305 304 304 299 296 293 288 279 277 279 277 279 276 276 278 284 290 285 284 284 285 281 284 286 281 282 282 282 283 279 280 278 280 284 281 278 272 276 275 276 281 284 284 284 285 285 286 287 286 286 286 284 284 286 286 286 287 287 287 285 285 286 286 286 286 285 283 283 283 282 282 283 283
300 301 302 302 296 293 289 289 294 296 295 297 300 306 304 301 297 296 292 294 295 290 282 279 281 281 279 280 278 282 286 282 280 281 283 280 281 279 279 278 280 282 281 280 276 278 283 284 278 275 275 276 277 283 285 286 286 285 285 286 287 286 285 285 286 285 285 285 286 285 286 286 285 284 284 285 285 285 285 285 284 285 283 283 282 283 283
301 301 294 292 288 284 287 288 294 298 304 303 302 293 290 290 286 284 285 286 289 292 282 282 279 282 281 281 282 285 283 280 280 281 281 280 281 282 278 281 281 281 277 277 281 284 277 276 275 275 276 280 282 285 286 287 287 288 287 286 285 285 285 285 286 285 284 283 282 282 283 284 284 283 285 284 284 285 286 285 284 284 284 283 283 283 282
299 293 291 288 285 285 286 292 298 303 299 298 291 287 285 283 283 284 283 282 283 285 281 284 283 280 280 281 283 286 285 281 277 276 278 282 280 280 278 278 280 278 277 275 280 282 277 276 271 272 275 280 282 284 286 288 287 288 288 287 286 286 286 286 287 287 285 285 285 285 286 285 284 284 283 284 284 285 284 284 283 284 283 283 283 283 283
292 290 287 283 286 288 292 296 300 297 292 288 284 283 283 283 284 281 280 282 281 279 281 283 281 280 282 285 284 284 286 282 277 277 276 281 282 278 279 277 280 277 274 271 278 279 274 273 273 271 275 278 281 283 284 286 286 285 286 286 286 286 287 287 287 288 288 286 287 287 287 287 287 286 285 285 285 284 283 284 284 283 284 284 284 284 284
289 287 284 282 288 289 291 293 292 287 285 283 282 281 280 282 282 281 280 276 278 280 280 283 285 285 285 282 281 281 287 286 282 280 278 280 283 281 279 277 278 275 273 274 279 277 274 273 271 271 276 278 282 284 284 285 286 285 285 286 286 286 286 286 286 286 286 285 285 284 285 286 286 286 286 286 286 285 284 284 284 284 284 284 284 285 284
288 288 288 289 291 292 292 289 285 285 282 283 280 278 278 279 280 280 279 278 278 277 285 282 282 283 284 285 285 283 285 286 281 278 279 280 281 276 277 277 277 272 271 276 277 275 272 271 272 273 275 280 281 284 284 285 285 285 284 285 286 286 286 286 286 286 288 287 286 286 286 286 286 286 286 285 285 285 284 284 284 284 285 285 285 284 285
299 297 295 291 288 284 284 285 284 281 279 278 274 277 277 277 279 278 278 278 279 281 284 287 285 286 289 286 286 285 285 288 285 281 277 279 280 277 275 274 274 273 276 279 275 272 270 269 270 276 280 282 282 284 285 286 286 285 285 285 286 286 287 287 287 286 286 287 287 287 287 286 286 286 286 286 285 284 284 284 286 285 285 285 285 285 285
293 294 291 286 284 284 284 280 283 282 277 276 276 274 275 275 277 276 277 280 281 283 284 286 284 284 283 284 282 284 282 285 283 279 278 278 278 275 274 273 275 275 278 276 273 271 270 270 275 281 282 282 284 283 284 285 284 284 284 285 285 286 286 286 286 286 285 286 286 286 286 286 285 285 285 285 287 286 285 284 284 286 285 284 284 284 283
286 283 279 279 278 281 281 275 278 278 276 276 277 274 273 273 274 273 277 278 282 285 283 284 285 285 284 284 283 282 282 282 281 279 278 277 274 275 274 275 275 274 274 272 270 271 273 275 277 279 281 283 284 284 285 285 285 286 285 284 285 286 287 287 286 286 286 286 286 286 286 285 286 285 284 284 285 287 286 286 284 285 285 285 284 283 282
285 280 276 277 276 278 278 274 275 275 276 278 276 277 277 277 278 278 280 281 282 283 286 284 284 284 282 281 283 282 278 276 277 278 279 275 274 275 277 277 275 272 271 270 269 269 273 277 279 281 283 285 285 285 285 285 285 286 286 285 285 286 287 287 286 286 286 286 286 287 286 285 286 285 285 284 285 285 286 286 285 286 284 284 284 284 283
284 282 279 277 275 278 279 276 275 276 278 279 278 279 282 283 281 282 283 284 285 285 285 283 283 284 283 282 281 281 279 277 278 279 276 276 276 278 279 276 273 270 269 268 266 267 269 276 279 282 284 284 284 285 285 285 285 287 287 286 285 286 286 286 286 286 286 286 286 286 286 286 285 285 284 284 284 284 285 285 285 285 286 286 284 283 283
283 282 280 276 274 277 277 278 277 279 279 280 279 280 281 282 283 286 286 285 286 286 287 285 284 283 283 281 282 279 279 278 278 279 279 279 278 273 270 271 270 270 268 269 270 272 276 279 282 283 284 285 285 285 285 285 286 286 287 286 286 285 286 286 286 286 285 286 286 286 285 285 285 285 286 286 284 284 285 286 286 285 285 284 283 282 283
284 279 278 275 276 277 276 276 279 280 279 277 278 280 281 282 282 281 284 285 287 287 286 286 281 279 281 279 277 279 279 278 275 277 277 274 273 271 269 268 268 271 272 270 272 275 280 283 284 285 284 284 285 286 286 286 286 286 286 286 286 286 286 287 286 286 286 287 286 286 285 285 285 285 285 285 285 285 284 284 285 286 286 285 284 284 283
283 280 281 279 278 277 276 278 280 278 276 277 281 281 280 281 282 283 283 286 285 285 284 284 282 282 280 279 277 276 277 276 276 278 273 271 270 271 269 267 267 270 271 274 275 275 279 283 284 284 284 285 285 286 286 286 286 287 287 287 287 287 287 286 285 285 286 286 286 286 286 285 285 285 286 286 286 285 285 285 285 286 286 285 285 284 284
282 281 280 276 277 276 277 276 273 276 277 280 279 280 280 280 282 285 285 286 286 283 281 280 280 278 279 276 275 274 277 279 278 276 273 272 273 271 269 269 268 272 275 278 280 281 283 285 286 285 285 285 285 286 286 286 287 287 287 287 287 287 287 286 286 286 285 286 286 284 286 286 286 287 288 287 286 286 286 286 285 285 286 285 285 286 285
278 279 282 281 280 279 281 280 279 280 279 278 279 280 282 283 283 285 287 288 285 285 281 279 279 277 274 275 275 277 281 276 275 275 275 275 275 272 269 268 271 277 278 280 282 282 284 285 287 286 286 286 285 286 286 287 287 287 287 287 287 286 286 285 286 286 286 285 286 287 287 286 285 285 285 286 285 285 286 286 286 285 285 286 285 286 286
Wind_Speed
8 7 11 12 10 10 11 11 11 10 10 6 5 5 3 2 3 4 8 9 5 3 2 0 0 2 4 4 8 5 6 5 4 6 7 2 2 2 3 1 1 3 1 1 4 3 5 3 3 4 2 3 3 4 4 2 5 5 1 1 0 5 2 3 2 3 5 5 4 3 7 5 9 6 4 2 1 1 4 3 5 5 1 1 1 2 1
5 8 10 10 9 10 10 10 10 10 9 6 6 4 3 2 0 1 5 8 3 1 2 3 2 3 4 2 7 3 5 4 7 3 5 1 3 1 1 2 2 2 2 3 2 1 4 5 3 3 1 3 4 7 6 3 2 2 2 2 2 1 2 6 3 2 3 5 5 6 5 7 4 1 3 2 2 4 2 6 1 4 3 4 6 5 3
6 8 9 9 9 9 9 9 10 11 10 8 5 3 3 3 3 2 6 7 6 2 3 5 3 3 2 1 5 4 2 6 11 7 4 2 1 1 2 0 1 3 1 3 3 6 5 2 4 2 2 2 3 8 9 7 4 3 3 3 2 3 2 2 4 6 4 2 1 2 1 1 0 2 4 3 6 2 2 1 1 3 1 3 4 2 2
7 8 9 8 8 8 8 8 7 9 10 11 5 3 3 1 1 1 5 5 3 3 0 1 2 1 1 1 4 2 3 4 3 6 1 2 2 3 0 1 4 3 6 6 6 7 6 5 2 2 2 2 3 3 7 7 2 3 11 4 3 2 1 2 5 7 9 7 3 1 1 1 4 0 5 4 2 3 2 5 4 5 3 3 2 6 11
7 7 8 7 7 8 7 7 7 8 8 10 5 3 3 3 2 2 3 1 2 3 1 1 2 1 2 1 1 2 4 3 2 0 1 3 1 2 4 2 3 1 8 3 5 4 6 7 6 2 3 0 0 5 4 5 8 8 3 5 4 3 4 2 6 5 4 4 2 1 3 4 2 3 3 4 4 2 5 2 3 3 10 1 1 7 13
7 7 7 7 7 8 7 7 6 8 8 10 4 3 3 2 2 0 3 2 4 4 6 5 2 3 1 3 1 3 3 1 0 3 2 0 4 3 5 7 4 2 6 4 4 1 3 3 2 0 1 2 3 3 7 4 6 4 2 4 4 4 3 1 4 5 5 5 6 7 7 7 6 6 5 6 4 10 6 1 1 1 3 8 8 10 11
6 6 7 7 8 7 6 7 7 7 6 6 2 3 3 2 1 1 3 1 2 5 3 3 5 5 4 2 1 2 1 1 1 1 1 4 3 3 2 4 3 5 4 7 3 0 4 2 2 1 1 2 1 2 1 1 7 4 3 4 1 4 1 0 4 8 6 5 4 4 12 5 7 8 8 5 6 9 10 6 1 1 1 7 13 9 8
6 6 7 7 7 7 6 7 6 6 6 4 4 4 3 1 1 1 2 0 1 2 1 2 4 3 5 3 5 2 1 0 1 2 3 1 2 3 8 2 4 8 10 6 4 1 3 5 3 1 3 1 2 1 2 1 2 4 2 1 3 4 1 3 1 4 3 5 5 7 7 6 7 7 8 7 4 8 9 8 6 10 10 8 13 13 6
5 6 7 7 7 6 7 6 6 5 3 3 4 3 4 3 3 3 3 2 2 0 1 2 3 1 1 2 5 1 1 0 0 1 2 1 2 2 8 7 7 6 11 9 6 2 6 6 5 3 3 3 1 2 1 2 1 3 1 2 2 4 2 2 2 4 1 1 3 5 9 11 10 6 8 9 7 4 1 5 2 2 8 9 11 8 5
4 6 7 7 7 6 7 6 6 6 2 3 2 4 2 3 4 3 1 1 2 0 0 0 4 2 5 5 3 1 1 2 2 4 4 4 3 5 8 3 10 4 9 7 4 5 5 4 4 3 4 4 4 4 3 2 0 1 1 0 2 1 4 2 3 6 1 1 1 5 4 5 4 2 2 5 3 4 4 5 4 1 8 14 12 8 5
5 6 7 7 6 6 7 7 6 6 1 3 2 4 4 3 4 4 2 0 2 1 2 2 4 3 4 5 1 0 1 3 2 4 1 2 4 2 6 7 8 3 4 3 4 7 5 5 4 6 9 9 8 4 7 11 9 2 3 2 1 2 5 2 1 4 2 3 1 3 3 3 2 1 3 2 2 1 4 3 5 4 3 1 5 8 10
5 5 6 6 6 6 6 6 7 6 3 3 2 4 3 3 3 3 1 1 3 1 2 4 6 2 2 3 4 1 4 6 2 3 5 0 1 2 7 6 7 4 1 2 2 2 3 4 7 8 10 10 10 11 13 12 7 5 2 2 2 4 4 2 1 5 3 4 1 2 2 3 1 3 3 4 8 10 11 8 9 7 13 14 13 9 9
5 6 6 6 6 6 6 6 7 7 5 3 3 5 2 5 4 3 2 1 2 2 1 1 1 3 4 4 4 3 2 3 4 4 4 4 3 3 0 2 2 2 3 3 6 8 3 2 3 3 4 3 6 11 15 12 10 7 6 4 5 4 6 3 4 3 3 3 0 2 2 2 3 1 3 4 2 1 4 9 7 7 5 6 12 10 10
5 5 5 6 7 7 7 7 7 7 8 5 4 4 2 4 3 3 1 1 4 3 4 2 5 4 6 4 4 2 3 4 3 2 3 1 3 2 0 2 2 4 6 6 7 4 4 4 3 2 0 5 2 4 2 3 7 10 10 8 3 7 4 5 3 1 4 2 3 2 1 2 1 2 3 4 2 3 1 4 2 5 4 3 11 12 11
5 5 6 7 8 8 8 8 8 8 8 6 3 3 4 5 4 3 4 3 2 4 1 3 3 1 1 2 2 4 4 2 5 1 2 1 1 1 0 2 3 4 2 4 2 5 2 3 2 2 2 3 1 1 2 1 3 5 5 4 4 2 2 3 5 1 4 5 3 2 1 3 4 2 1 1 3 3 3 1 2 3 5 5 9 13 13
5 6 7 7 8 8 9 9 9 9 8 8 3 5 5 4 2 4 4 2 2 4 5 2 3 2 4 2 1 4 2 1 1 1 3 3 2 2 2 3 2 2 6 6 3 4 1 2 1 3 2 2 1 1 0 1 1 3 4 6 6 6 7 6 6 4 3 3 5 4 5 2 2 4 1 2 3 3 3 2 0 2 6 6 8 11 9
5 6 7 8 9 9 9 9 10 9 9 7 3 3 5 3 5 5 3 3 2 1 5 2 1 2 5 3 4 5 1 2 0 2 1 2 2 1 1 3 2 4 3 4 4 2 2 4 2 3 1 1 1 2 1 2 1 1 5 6 9 7 4 3 4 3 2 5 4 4 1 1 3 2 2 4 3 3 0 1 4 6 7 7 8 11 12
5 7 8 9 9 9 10 10 10 10 9 7 4 5 4 3 6 5 3 2 0 3 4 2 1 4 3 2 3 1 2 2 4 2 3 1 1 2 3 3 3 3 2 2 1 5 3 2 2 1 1 1 1 2 2 3 2 0 1 1 1 3 2 3 5 4 2 5 1 2 2 0 1 1 4 5 5 1 4 6 3 5 8 8 8 10 7
6 8 9 10 10 10 11 11 11 11 9 7 1 6 7 6 6 7 3 1 1 1 6 5 1 3 1 2 2 2 1 2 3 5 1 3 1 1 0 0 0 1 7 3 3 3 3 0 0 2 3 2 3 2 1 2 1 0 1 2 2 2 1 0 3 3 3 2 5 3 1 1 1 2 4 4 1 5 5 2 1 6 8 8 7 7 5
7 8 10 11 11 11 12 12 12 11 9 6 3 5 4 3 8 11 7 2 1 1 4 3 2 3 0 2 2 3 1 5 2 6 3 3 2 2 3 1 4 3 2 3 2 0 3 3 2 1 2 1 1 3 3 1 1 1 1 0 2 1 2 1 1 1 2 2 4 1 3 1 1 3 2 1 2 0 3 6 5 6 9 10 8 7 7
8 9 11 12 12 13 12 13 12 11 10 8 4 5 7 3 9 11 8 1 3 2 4 3 1 2 1 3 1 4 4 4 3 5 3 2 0 3 2 3 2 1 2 3 5 2 3 1 1 1 1 4 1 2 5 3 1 2 2 2 2 1 2 1 0 1 5 3 4 3 1 1 2 1 2 1 1 5 6 7 7 6 7 8 8 6 6
8 10 12 13 13 13 13 13 13 12 10 8 4 2 5 3 3 6 7 2 2 3 0 3 1 2 1 2 3 4 4 3 3 6 7 3 2 1 3 3 1 1 1 3 3 2 2 2 1 2 2 1 3 2 2 4 1 1 2 2 2 2 2 0 4 1 1 2 2 2 3 1 4 4 5 7 7 6 6 8 7 9 6 6 10 9 8
9 10 12 13 13 14 14 14 13 12 11 9 4 5 6 2 1 3 7 4 3 3 3 4 3 2 2 1 3 3 1 2 6 3 4 8 1 1 3 1 0 0 1 0 4 5 4 5 2 4 3 1 5 3 4 2 2 0 2 4 3 4 8 6 7 6 7 8 5 3 5 6 7 8 6 8 9 7 7 9 10 7 7 6 10 10 10
9 10 12 13 14 14 15 15 14 13 12 9 5 5 6 5 3 2 4 0 3 2 3 6 5 2 1 2 4 3 3 3 1 1 2 5 5 0 1 1 2 2 1 0 4 5 4 3 2 2 4 2 3 3 4 2 2 2 4 1 1 1 1 2 5 5 1 4 3 6 6 7 9 9 9 9 8 7 7 9 9 10 10 11 10 10 9
10 11 12 13 14 15 15 15 15 14 12 10 7 5 5 5 3 7 5 2 0 3 3 2 1 2 3 3 3 1 2 1 3 5 5 6 7 5 2 1 1 3 1 1 2 7 3 4 1 2 5 1 3 1 0 5 1 1 3 0 1 2 0 6 5 4 2 4 5 7 8 8 8 7 9 11 11 11 9 10 10 10 10 11 11 10 10
11 12 13 14 14 15 16 16 16 15 13 12 7 4 3 5 2 4 1 3 3 5 4 1 1 4 3 3 4 1 3 4 7 10 7 6 5 9 8 2 6 4 3 2 3 7 4 5 3 2 4 1 2 4 1 2 5 2 4 1 2 3 1 3 3 5 8 10 8 9 10 11 10 9 9 8 10 12 13 12 12 12 13 11 9 8 8
12 12 13 14 15 16 16 16 16 16 15 13 7 5 6 6 4 6 4 5 7 3 3 3 3 5 4 6 4 4 3 6 8 10 8 8 10 7 7 6 7 5 7 6 4 4 4 4 4 5 3 2 3 3 3 4 3 2 2 1 1 4 4 7 10 8 3 4 9 8 7 7 6 10 12 10 10 12 13 12 11 11 12 11 12 8 6
12 13 14 14 15 16 16 17 16 16 16 16 7 5 4 3 1 2 2 3 3 6 5 1 3 1 2 6 6 5 6 8 9 10 8 8 8 8 8 6 5 5 3 5 6 6 5 8 6 0 2 1 5 5 2 2 3 5 5 3 0 4 6 7 5 5 7 8 6 3 9 10 8 9 10 10 8 10 12 12 11 10 10 10 11 11 8
12 13 14 15 16 17 17 17 17 16 16 12 3 1 1 5 1 3 3 1 9 7 5 1 1 5 4 2 3 7 7 10 10 10 8 7 8 8 9 7 6 3 4 5 4 3 5 2 1 3 2 1 5 2 4 4 3 3 3 4 2 2 3 4 8 12 10 8 9 9 7 9 10 11 11 9 7 9 11 9 10 10 10 9 8 9 10
13 14 15 16 16 17 17 17 17 15 13 4 1 3 4 1 1 4 6 3 4 6 5 3 5 0 3 1 2 3 6 10 11 12 10 8 7 6 4 6 5 4 5 4 4 6 1 3 2 2 3 2 4 1 3 0 3 1 3 3 5 6 6 8 6 6 8 9 9 10 12 11 10 11 10 8 7 8 10 10 9 9 8 7 9 7 5
14 15 16 16 17 17 17 18 16 15 11 1 1 1 2 2 1 2 6 4 2 7 3 4 3 2 4 0 2 5 5 7 9 9 8 5 5 4 1 6 4 3 7 5 5 1 2 4 2 3 2 5 4 3 2 2 3 2 3 3 4 6 8 10 10 10 10 10 12 11 11 11 9 10 9 7 6 5 7 6 6 7 6 6 5 5 5
15 16 16 17 17 17 17 17 16 12 4 0 1 2 2 2 1 4 5 2 2 7 4 5 2 2 0 2 1 1 2 3 3 4 3 2 6 4 8 6 3 3 4 4 1 3 4 1 4 4 6 5 5 3 3 3 5 2 2 5 5 7 8 10 11 10 10 10 15 13 10 8 7 7 8 8 5 4 5 5 5 5 6 5 4 4 4
15 16 17 17 17 17 17 17 16 10 4 6 7 5 6 7 7 5 2 0 7 2 4 5 3 1 1 1 3 4 2 4 7 4 4 2 3 3 5 5 4 5 4 6 4 3 1 3 2 7 4 2 4 2 4 4 3 2 4 5 6 7 8 8 9 10 10 7 2 10 12 10 6 4 7 6 5 4 5 5 4 5 6 6 6 5 5
16 16 17 17 18 17 16 16 14 10 6 2 3 2 2 4 3 5 2 6 4 1 4 2 1 2 0 3 6 2 3 4 0 2 5 4 0 5 1 4 5 5 6 5 1 3 2 4 6 2 3 5 3 4 5 2 2 5 5 5 6 7 7 8 8 8 5 4 5 5 6 6 7 8 7 6 5 4 4 4 5 6 4 5 4 4 3
17 18 17 17 17 16 16 11 4 2 2 1 1 4 3 8 4 2 2 2 3 2 2 2 3 3 1 1 2 1 1 6 3 1 5 1 2 4 1 6 3 7 2 2 6 2 3 1 1 6 1 4 5 4 2 3 4 4 5 6 5 7 8 9 4 4 4 6 7 6 7 8 10 7 6 5 5 4 5 3 4 6 5 4 4 2 2
18 18 17 16 15 10 4 1 1 2 3 0 1 2 7 6 6 4 3 3 4 3 2 1 2 3 3 3 3 1 1 3 1 1 1 1 4 3 5 3 6 2 0 4 3 3 3 1 4 3 2 6 2 1 5 6 8 6 6 6 6 7 6 6 7 4 4 6 7 6 7 6 7 5 4 4 4 4 5 5 4 4 4 4 2 1 1
18 17 15 12 4 1 2 1 2 1 1 3 5 5 7 4 2 3 6 4 3 3 4 3 3 3 5 3 1 2 4 5 3 4 3 4 3 2 4 3 4 1 4 3 4 4 1 1 7 3 3 6 4 4 7 8 8 7 6 7 6 4 5 5 5 7 8 7 8 6 6 6 5 4 4 4 4 4 5 5 5 6 5 5 2 1 1
15 8 2 1 2 2 0 1 1 5 9 8 6 3 6 7 1 3 2 3 2 3 3 3 2 2 1 3 3 1 3 1 2 3 1 1 3 1 0 4 0 3 3 0 1 1 2 5 3 3 1 2 1 6 7 7 8 7 6 5 4 4 5 6 7 9 7 6 5 4 4 5 5 4 6 5 4 5 6 4 3 2 3 4 4 3 4
1 0 1 2 3 0 1 0 5 12 4 2 3 1 1 1 2 1 0 1 1 1 2 4 4 1 4 4 0 2 4 4 2 3 3 2 3 0 1 4 1 4 1 3 1 3 3 2 2 3 1 1 4 5 4 6 5 6 7 7 6 6 7 7 9 11 10 8 10 9 10 9 8 6 4 4 3 1 2 3 4 4 4 4 4 4 4
4 3 1 1 1 1 4 6 10 5 2 1 2 3 1 1 2 1 1 1 1 2 1 3 2 3 3 7 7 1 0 4 3 1 2 1 1 4 1 3 0 4 1 2 2 2 5 2 0 2 1 2 5 4 5 6 7 5 5 6 5 6 7 9 7 7 9 6 8 9 7 8 8 8 7 6 6 4 2 2 2 3 4 5 5 7 7
3 1 2 1 2 3 4 6 5 2 1 1 2 1 1 0 0 0 1 2 0 2 1 3 1 2 1 3 2 3 2 3 1 3 4 3 1 3 3 1 1 3 0 1 1 2 2 3 1 3 7 5 6 5 4 5 6 5 5 6 6 7 6 5 5 5 7 7 4 4 5 7 8 8 7 8 8 6 6 6 5 5 6 7 7 6 5
1 1 1 2 2 3 4 2 3 1 2 0 2 0 0 1 1 1 1 3 2 1 1 2 2 5 4 4 3 4 1 0 2 2 2 2 0 2 1 0 1 2 1 2 1 3 3 2 1 1 4 4 4 4 6 7 5 7 5 5 6 6 7 7 6 4 9 9 6 6 6 7 8 7 8 8 7 7 8 7 6 6 8 6 5 4 5
5 2 3 1 1 1 0 2 2 1 1 0 2 1 0 1 2 3 1 1 1 2 1 1 1 1 1 3 2 1 2 1 1 1 2 1 1 2 2 1 1 1 1 0 2 2 1 2 3 6 5 6 5 6 7 10 8 7 7 6 7 8 9 8 8 6 6 10 10 9 8 8 7 7 7 8 7 5 3 5 9 7 5 5 5 5 5
3 1 1 1 1 1 1 2 1 1 1 1 2 3 1 0 1 1 1 2 1 1 1 7 3 6 3 2 3 0 1 1 4 3 2 0 1 0 1 1 1 1 0 3 1 2 3 2 6 7 7 5 4 6 6 5 6 5 4 3 5 7 7 8 8 8 5 5 6 5 5 6 6 3 4 5 9 9 6 5 4 8 6 5 5 4 4
1 2 2 1 1 1 2 1 2 1 3 2 1 2 3 4 4 2 4 3 2 6 1 4 6 6 5 1 2 2 1 2 1 3 1 1 2 1 2 1 1 1 2 2 0 1 0 1 2 2 5 6 8 7 5 6 8 10 8 5 6 9 10 11 9 8 8 9 9 8 7 6 6 5 4 5 5 8 9 7 5 5 5 5 5 4 3
0 2 2 3 1 2 1 0 0 0 2 2 2 6 5 6 5 4 4 2 4 4 7 5 5 7 3 1 5 2 0 2 2 1 0 2 3 1 0 0 2 2 1 2 1 4 6 6 6 8 9 10 10 7 6 6 5 8 12 10 8 9 10 11 10 10 9 8 6 8 8 6 6 6 5 4 5 5 6 7 6 7 5 5 5 5 5
1 1 2 1 2 1 1 1 2 3 4 4 5 7 7 7 7 2 1 1 6 6 6 2 3 4 6 0 1 1 3 2 2 1 1 1 1 0 1 2 1 0 3 2 3 3 3 6 6 7 9 9 8 7 7 7 8 11 12 10 8 8 8 10 10 10 8 8 7 8 7 7 5 5 5 4 4 5 5 5 6 6 8 7 5 4 5
1 1 1 2 2 1 2 3 1 1 1 2 2 4 3 1 2 1 0 1 6 6 7 6 5 3 4 2 5 2 0 0 2 1 1 1 1 2 1 0 0 1 2 5 6 5 5 6 8 9 9 9 10 9 8 8 8 11 12 11 10 9 8 10 9 9 9 10 9 8 6 5 6 6 6 7 5 4 5 6 7 6 5 4 4 3 4
1 1 1 2 1 2 1 1 3 2 2 2 1 2 5 3 2 3 1 2 7 6 5 7 3 4 1 1 2 1 1 1 3 1 1 2 1 2 2 2 1 1 4 5 5 5 7 9 9 10 9 8 9 10 10 10 11 11 12 12 11 11 9 10 10 10 9 9 8 8 7 7 7 6 5 4 5 4 4 3 5 5 5 6 6 5 5
0 1 1 1 1 1 1 1 1 2 3 2 1 3 2 3 1 2 2 4 2 6 3 5 3 5 1 1 1 2 0 0 1 0 2 0 1 1 2 0 3 4 2 3 4 4 4 7 9 9 9 9 9 10 10 8 10 12 10 11 10 9 10 10 8 7 8 8 8 8 7 6 5 5 7 8 6 4 4 3 4 6 6 5 6 5 5
0 0 1 2 3 2 2 1 3 2 2 5 6 4 4 6 6 4 2 5 4 4 4 3 2 2 1 2 1 1 1 1 2 1 3 2 1 3 3 2 4 6 6 5 4 4 9 10 11 10 9 8 8 9 10 11 11 11 10 9 9 9 8 8 9 8 7 7 6 7 8 7 8 9 8 5 5 5 4 3 2 4 5 5 5 6 6
1 1 0 1 1 3 3 1 1 6 6 4 6 6 5 5 5 3 3 7 6 7 4 1 3 2 2 1 2 1 0 2 1 1 1 2 2 2 3 5 4 7 7 4 4 6 7 9 11 14 12 11 10 9 9 9 10 9 9 8 8 8 7 6 7 7 7 5 7 8 8 6 5 4 4 5 5 4 5 5 5 4 4 5 5 5 5
Wind_Direction
288 305 307 308 305 312 314 320 324 326 345 326 348 314 265 264 288 9 154 182 182 58 71 355 185 222 238 290 291 263 267 249 304 326 302 337 353 4 50 45 78 351 107 72 68 73 63 18 102 156 101 72 35 281 320 279 59 80 21 30 321 88 72 97 0 321 312 308 293 4 14 49 57 24 39 54 69 158 165 167 183 128 176 83 21 69 235
281 300 305 304 307 310 308 318 328 324 340 329 325 314 290 302 235 240 192 223 262 58 140 193 237 275 298 275 258 271 260 284 294 275 285 330 341 61 339 10 60 114 22 64 61 346 90 355 56 57 25 72 335 357 29 57 70 89 215 135 253 88 298 116 114 59 336 344 346 353 352 45 72 49 333 344 37 65 136 110 53 96 207 168 128 190 234
288 293 298 304 307 306 318 319 322 316 327 335 325 298 302 305 262 231 174 214 232 241 195 128 170 225 259 289 306 314 279 228 229 233 288 325 159 81 5 335 123 41 32 81 67 41 120 115 354 109 37 81 350 358 30 29 76 42 195 139 106 90 168 99 134 152 166 181 226 218 244 147 310 71 359 12 62 92 95 124 28 121 239 103 118 157 266
274 293 300 297 303 307 313 314 316 312 323 329 317 311 287 224 153 170 156 193 183 257 193 127 142 191 255 314 262 236 262 296 237 172 251 65 35 69 219 329 64 55 51 39 39 39 27 104 209 52 50 346 5 350 354 39 47 51 67 55 80 121 85 96 154 154 185 201 201 229 108 33 84 357 40 354 44 53 87 96 91 172 181 85 241 162 143
278 296 295 301 304 306 309 311 314 307 319 320 323 294 248 306 221 150 139 87 208 258 301 209 133 216 199 146 268 268 236 260 308 71 102 357 66 68 38 346 66 10 76 92 61 4 63 27 78 23 123 283 292 313 14 1 9 2 54 6 86 63 60 15 103 83 144 169 155 96 86 116 27 55 356 351 43 67 76 107 193 162 107 321 273 169 137
285 296 299 303 302 302 311 311 307 302 312 324 308 277 225 230 266 356 225 141 193 198 273 203 209 259 19 271 345 268 296 344 134 331 23 353 16 97 343 25 28 146 136 127 86 11 59 29 81 1 46 107 348 37 360 48 308 1 27 9 103 128 124 243 80 39 59 81 104 103 80 59 67 51 19 9 21 67 80 54 352 64 141 177 168 150 135
286 292 291 296 298 304 305 302 300 300 300 310 304 276 245 251 280 260 270 128 227 171 192 154 177 205 185 257 259 279 255 14 249 170 327 26 353 73 106 344 357 82 88 92 112 70 76 356 337 127 20 63 35 68 350 29 14 53 32 21 97 89 36 63 92 95 46 33 57 89 104 104 58 35 22 356 52 98 101 85 325 185 187 146 133 109 94
291 288 287 294 298 302 299 296 298 296 314 292 252 231 278 174 3 263 337 357 218 209 148 193 172 184 210 190 245 221 228 195 334 2 72 55 38 28 83 71 47 77 79 86 88 216 169 164 129 290 111 0 75 134 179 194 10 51 57 7 351 100 264 114 110 73 33 31 46 66 88 110 88 39 27 20 19 76 82 96 64 77 61 75 113 114 107
305 303 296 296 298 300 296 293 296 299 307 272 234 268 212 293 287 314 318 346 280 295 160 148 148 118 258 188 273 186 255 119 150 103 314 144 179 114 139 134 85 59 82 84 107 170 127 115 115 162 130 117 224 120 281 130 53 5 24 35 326 68 186 52 82 85 42 356 56 95 98 89 86 51 23 11 1 46 350 102 173 135 147 126 110 116 158
297 293 295 294 299 296 291 292 297 306 301 290 302 258 306 291 281 262 221 162 291 282 320 105 82 246 222 178 238 191 268 239 117 59 17 44 86 145 142 166 102 52 77 85 139 183 158 161 178 160 129 104 64 58 67 87 101 157 92 248 62 114 121 93 74 96 242 121 176 131 125 75 37 350 333 325 355 69 54 36 48 5 157 139 168 193 116
294 298 302 301 296 292 290 288 285 285 218 277 286 282 321 6 319 347 346 229 317 178 148 250 153 223 148 193 210 106 95 92 87 112 287 27 30 70 122 109 100 121 111 166 201 171 176 161 136 77 79 77 74 51 64 55 44 70 149 68 28 65 93 107 131 109 163 133 175 341 41 194 204 4 347 294 316 83 71 10 354 18 74 67 61 107 119
306 307 304 303 298 288 291 290 286 281 254 251 286 283 283 286 280 258 33 92 268 246 181 213 188 286 120 203 158 144 98 83 87 133 121 349 169 129 86 72 90 82 221 124 84 118 105 57 67 75 66 68 71 60 53 52 23 24 35 139 125 103 79 114 116 102 127 117 55 81 209 235 265 292 357 24 77 87 88 61 37 74 107 106 96 95 105
311 309 309 310 312 309 300 296 289 281 262 234 236 269 332 0 327 308 306 117 250 305 22 286 258 236 152 107 74 37 22 33 58 86 103 112 42 36 63 134 114 202 154 119 58 50 77 102 26 86 70 23 42 55 40 34 20 11 34 51 113 133 114 155 53 105 73 76 45 157 242 266 255 296 7 343 3 32 81 55 26 21 29 109 120 121 115
313 309 322 322 317 311 308 302 295 284 275 253 246 265 290 296 299 304 283 90 290 244 250 310 7 41 82 89 110 62 64 44 349 25 72 12 112 114 347 145 170 159 137 101 60 80 60 31 58 52 35 9 6 35 323 20 32 25 9 6 42 131 103 95 101 47 136 137 85 98 333 295 169 0 13 8 12 12 9 120 3 33 33 85 125 123 121
306 318 324 319 319 312 311 303 297 291 280 269 254 255 253 260 264 276 319 303 284 286 188 71 308 320 64 33 58 66 41 325 75 3 313 10 68 268 216 4 43 100 88 74 33 40 135 100 76 97 338 76 164 215 346 38 315 28 19 1 48 53 127 226 111 252 125 130 103 110 123 220 194 198 77 348 356 316 280 70 78 60 83 106 126 128 133
322 327 324 321 317 318 311 307 299 292 285 275 259 250 235 214 243 270 279 327 330 27 322 305 237 220 93 53 59 107 153 81 61 350 10 345 335 346 359 8 10 50 57 75 91 98 68 97 176 96 187 193 226 80 264 1 359 321 19 17 52 31 76 108 119 142 74 94 135 192 184 217 75 162 275 341 332 343 332 49 113 165 138 140 139 129 136
329 327 329 325 326 320 315 309 301 294 291 279 250 254 270 175 199 216 221 230 223 229 261 292 99 107 83 20 14 33 71 59 150 76 32 355 329 303 329 348 336 54 78 76 10 64 46 49 78 135 267 211 103 189 90 55 64 326 328 7 37 40 359 31 72 105 175 146 125 205 192 183 201 250 276 293 302 260 275 171 225 152 157 149 149 142 149
321 328 333 332 327 324 316 313 307 301 296 277 249 257 251 178 196 190 244 269 255 295 297 313 98 56 76 181 132 216 72 37 38 35 101 270 357 19 300 4 19 358 86 88 75 66 71 102 127 151 148 265 143 74 180 178 96 225 328 8 13 4 1 40 172 140 143 110 101 29 308 189 240 260 300 290 254 240 165 216 147 162 154 149 150 147 144
323 329 334 333 327 324 320 315 312 306 301 288 259 275 252 208 181 195 232 247 175 23 296 300 138 112 178 92 112 137 127 122 151 100 49 20 53 259 174 253 134 225 4 135 60 108 121 12 41 116 131 301 32 163 200 53 220 299 67 42 40 6 76 337 73 67 128 151 115 189 195 181 110 268 267 267 152 168 216 141 207 128 132 130 139 110 81
319 328 333 331 329 326 322 317 315 314 308 298 205 250 266 168 191 188 184 183 174 263 311 337 19 59 329 122 96 67 25 28 41 121 146 128 279 43 30 30 320 77 1 59 78 183 108 185 199 109 49 148 256 158 64 80 52 121 136 326 125 210 99 86 126 172 62 52 85 43 240 178 151 313 318 330 221 266 114 117 66 100 113 113 107 111 116
321 327 329 329 330 328 324 320 318 318 316 303 257 258 286 226 183 197 215 147 34 13 329 302 39 351 80 74 93 169 140 154 172 103 205 142 179 85 133 202 221 97 206 126 163 227 145 150 220 129 206 124 231 83 168 152 47 348 124 168 122 243 84 116 230 205 146 140 168 207 343 288 282 217 176 176 35 123 126 113 99 65 103 112 110 97 115
319 324 328 328 330 329 323 321 320 319 315 306 268 231 255 275 167 202 197 220 202 215 272 280 251 276 242 203 171 155 134 144 204 151 136 92 351 157 189 127 151 140 197 116 59 46 356 157 80 95 136 134 27 105 164 78 136 270 2 56 81 294 143 252 149 331 138 187 168 243 252 2 45 84 75 86 84 82 94 97 106 116 90 111 111 115 110
319 324 327 328 328 327 323 319 318 313 309 305 294 230 242 314 311 169 144 183 270 289 322 355 357 340 343 293 192 182 166 146 106 91 131 108 58 31 106 95 13 165 87 97 171 157 177 122 171 157 85 85 149 103 39 101 175 312 74 348 134 100 114 105 88 93 100 64 48 65 67 71 69 65 74 85 87 79 94 105 103 84 100 107 116 115 116
319 325 326 328 327 325 320 318 314 310 308 304 282 245 255 249 235 111 140 89 156 161 360 3 64 358 286 8 348 342 48 28 38 141 180 127 119 339 334 246 155 58 22 280 169 133 182 114 155 129 106 215 96 75 119 69 88 125 106 122 75 241 302 65 103 176 83 71 15 71 87 94 90 87 80 78 81 90 95 93 92 102 103 98 97 107 106
327 326 327 326 325 321 318 316 312 309 306 301 285 241 258 284 216 196 174 159 45 88 138 316 330 230 246 240 267 23 38 104 108 91 58 67 121 136 149 316 172 146 197 164 114 68 47 104 65 68 106 264 111 99 281 111 181 166 79 239 115 346 140 80 92 88 75 119 118 104 100 96 98 98 104 99 96 92 85 93 97 100 99 101 105 103 99
330 328 326 326 323 319 316 314 312 310 305 297 282 214 194 231 204 144 107 71 96 104 108 132 348 323 355 28 25 324 313 52 68 69 68 87 88 117 134 110 45 25 95 74 81 91 103 63 84 74 96 31 81 115 52 303 120 93 105 205 204 167 145 107 186 107 92 97 101 107 93 82 92 100 92 97 105 104 100 98 100 102 99 95 88 89 105
331 327 325 324 321 317 316 314 314 310 306 301 283 225 224 267 212 183 179 161 100 20 39 113 279 305 9 39 332 345 10 64 72 79 78 78 90 78 79 82 90 45 64 42 29 97 73 76 62 62 48 78 98 107 120 46 72 71 71 8 29 72 82 116 117 110 146 152 150 155 125 120 98 106 111 107 106 106 106 105 104 106 108 109 108 100 91
330 327 325 322 320 318 317 316 313 314 312 314 298 224 195 218 280 238 195 134 112 167 161 182 75 262 301 56 5 11 37 63 78 80 74 63 58 68 76 84 86 72 33 71 46 40 58 81 91 179 91 28 56 46 25 120 81 51 40 333 255 128 157 150 148 145 144 140 151 67 95 98 101 108 110 111 112 113 114 115 117 114 113 116 117 117 110
329 327 324 322 319 318 317 316 315 313 319 327 336 24 250 242 269 7 41 68 101 97 95 154 304 23 82 230 301 42 28 71 76 88 86 70 61 66 78 71 87 130 97 76 106 98 79 103 172 77 59 172 93 55 28 43 42 52 313 308 13 78 144 124 113 96 89 107 115 115 116 118 126 120 116 112 118 117 116 119 121 128 130 130 124 128 133
330 327 325 322 319 318 317 315 315 313 326 348 48 50 45 14 321 44 352 46 115 118 92 91 83 206 305 10 19 44 57 61 72 74 77 78 63 60 60 74 47 51 77 98 98 78 12 82 358 0 350 27 104 148 73 129 86 67 326 12 61 81 80 83 87 108 130 129 112 111 112 111 119 123 120 119 128 128 130 133 137 138 143 147 144 147 148
329 325 323 321 318 317 315 313 312 317 338 47 84 60 45 79 299 337 12 29 60 98 127 93 103 294 41 22 103 48 65 65 71 73 68 73 77 75 27 77 42 47 63 27 44 47 67 25 39 1 5 51 99 87 143 108 94 56 340 25 59 83 86 87 91 100 113 111 112 109 110 116 120 117 115 133 139 139 126 125 135 141 141 138 140 142 142
326 323 321 318 317 315 312 310 310 323 331 99 115 159 180 186 213 313 358 46 76 65 74 84 35 23 282 324 340 314 74 72 71 36 21 29 43 20 47 55 89 24 101 104 133 61 22 306 80 39 49 352 59 90 57 65 85 114 72 72 70 87 96 104 104 105 105 113 118 107 105 117 143 139 143 151 139 132 128 121 109 100 97 101 94 89 89
322 321 319 315 313 313 308 304 306 318 267 266 260 252 260 265 281 298 317 22 55 92 114 80 121 198 91 231 330 349 51 41 31 32 45 351 83 34 51 358 17 39 17 75 7 82 252 80 23 54 334 20 72 84 82 59 86 141 108 90 84 89 93 94 101 106 113 117 107 134 147 155 160 115 118 121 120 115 110 104 105 101 98 93 87 81 74
320 317 315 312 309 307 305 304 303 297 296 359 53 14 348 14 18 42 28 78 100 131 75 101 63 55 89 313 83 326 51 109 53 35 76 357 112 61 43 34 10 78 347 87 270 70 15 62 64 67 6 16 17 79 72 39 73 99 81 71 76 80 89 92 98 107 94 77 55 64 94 104 100 103 97 100 92 80 89 98 103 93 92 99 89 94 115
317 313 309 307 305 302 304 308 350 57 91 343 257 254 293 330 353 301 79 106 83 352 34 22 108 91 52 359 85 248 339 87 90 26 117 308 42 109 71 60 348 75 330 71 48 62 69 359 180 72 53 314 42 53 59 160 120 100 89 88 77 86 93 99 100 111 100 95 89 94 102 106 110 115 128 119 116 120 101 80 103 121 112 106 104 75 98
312 308 305 302 300 303 309 274 47 40 29 349 216 300 343 324 33 57 77 95 116 152 83 225 80 122 139 125 127 205 24 62 4 16 119 115 24 17 86 103 70 346 236 71 118 2 64 308 70 82 302 72 108 167 172 159 141 142 138 139 150 141 153 151 150 127 95 100 97 97 102 111 120 132 126 128 120 119 125 116 97 89 111 121 127 161 103
306 303 303 302 315 52 17 236 281 102 218 210 256 303 353 33 346 47 11 34 10 87 134 145 86 202 153 183 257 278 83 147 329 50 356 63 133 300 56 40 92 330 39 20 25 63 324 47 96 71 40 121 163 181 157 155 146 151 162 170 169 136 112 114 124 112 100 104 110 112 121 124 121 116 124 142 150 140 128 150 161 149 160 168 178 181 203
303 302 319 27 43 50 39 335 0 305 319 319 7 30 357 27 88 344 359 38 289 59 359 70 137 220 15 82 133 238 77 204 44 118 8 239 83 29 31 94 131 84 70 62 33 170 63 36 56 99 27 302 190 153 165 160 165 163 155 153 161 152 130 124 118 104 100 91 84 96 101 129 149 174 157 178 165 166 185 174 163 145 131 154 180 152 111
10 48 39 30 95 145 177 260 317 329 328 289 43 71 352 356 59 47 322 279 9 78 300 108 188 151 100 70 16 302 138 165 61 40 105 275 109 224 36 88 304 72 9 58 302 47 66 2 12 44 51 94 128 201 191 165 158 166 162 168 162 154 140 147 145 141 148 164 171 170 161 166 173 196 189 163 189 182 153 149 153 165 150 142 137 132 127
33 43 61 41 94 240 268 293 330 327 65 70 331 103 90 335 100 222 310 87 0 299 73 156 204 154 173 152 153 145 340 83 119 168 146 336 350 132 233 93 262 91 161 92 225 28 113 119 316 77 161 197 195 199 176 164 157 179 165 175 164 157 154 160 176 168 160 160 165 173 171 164 161 157 170 170 158 146 145 174 175 151 137 150 146 140 157
12 44 33 90 252 303 300 303 330 51 65 48 14 9 66 137 319 187 78 47 145 210 206 154 76 66 22 60 71 132 276 87 128 126 113 98 244 88 66 114 214 82 1 88 272 68 76 76 31 137 208 216 185 181 176 155 159 169 179 165 160 154 146 141 142 132 112 102 108 138 152 151 152 158 162 163 161 161 164 165 153 158 146 137 156 176 169
205 173 189 203 273 291 317 354 55 55 14 63 117 147 266 194 340 7 110 140 226 211 285 94 119 145 197 171 171 132 34 187 126 101 97 107 297 109 158 190 19 109 166 231 147 67 75 109 145 222 245 221 218 158 157 160 161 153 164 153 146 143 143 137 129 140 132 132 142 137 138 138 140 146 149 142 139 143 141 137 142 155 162 167 153 135 147
276 219 113 351 3 340 81 67 316 105 130 148 48 98 349 111 194 164 235 276 298 97 227 67 169 124 30 64 51 66 170 218 123 9 72 130 301 58 85 26 60 78 188 352 73 65 73 155 183 227 215 183 190 173 184 167 167 156 161 166 154 154 143 139 138 141 142 136 143 143 148 139 143 149 144 126 117 112 112 138 151 157 161 157 162 161 153
108 135 56 325 78 304 79 154 258 55 358 28 113 170 173 3 285 36 79 221 225 107 186 131 185 123 153 314 135 203 17 14 47 81 52 330 82 36 61 92 134 242 23 56 56 134 212 215 201 191 188 178 182 183 186 150 126 117 121 157 140 128 119 111 106 100 87 87 100 109 115 119 117 100 101 118 129 135 144 144 164 152 156 138 157 161 142
96 8 36 24 36 277 72 281 332 120 182 233 132 166 149 172 232 175 183 243 105 186 165 93 120 97 118 262 39 15 103 165 312 98 222 80 52 18 107 180 216 38 105 168 4 347 352 227 233 155 168 175 187 192 177 155 151 145 144 137 134 135 133 129 130 126 133 135 138 132 128 131 127 135 138 132 139 140 141 151 158 141 151 162 164 136 170
112 162 97 92 32 312 110 166 56 346 288 146 181 191 165 216 169 209 247 130 96 109 125 147 103 96 66 284 126 189 5 86 58 29 123 69 99 88 249 332 68 74 33 66 125 190 212 218 189 183 181 179 180 182 168 159 144 133 127 140 159 147 144 137 140 138 140 136 140 136 142 140 138 137 149 150 146 151 151 151 155 155 146 149 165 176 192
88 11 90 111 105 268 90 148 230 203 174 191 209 172 180 190 197 194 200 144 132 156 105 88 102 147 129 179 51 16 36 48 95 280 70 60 131 252 358 114 212 167 143 196 224 239 255 239 206 182 174 172 170 162 153 148 154 149 147 147 151 152 147 138 140 141 150 141 141 143 148 155 150 142 128 119 140 152 154 153 157 159 160 177 185 175 167
132 223 93 109 204 170 151 236 209 302 243 176 211 189 224 180 93 114 324 109 143 126 119 105 92 49 43 318 79 134 216 20 87 320 117 154 43 41 17 37 295 241 177 161 221 218 220 199 177 178 175 167 160 153 153 154 160 152 147 151 154 151 152 145 146 145 146 147 153 157 157 148 141 152 157 158 161 176 175 170 169 171 173 128 121 150 161
155 118 143 193 192 150 202 254 122 163 260 305 297 144 134 123 203 230 254 154 132 140 147 121 171 92 90 283 89 69 45 346 96 239 12 33 102 187 151 199 179 224 248 174 204 199 204 184 170 157 153 156 163 156 161 160 159 156 154 155 160 161 158 155 158 162 160 152 152 151 162 169 159 153 141 132 143 188 205 174 160 163 170 167 162 164 181
94 348 25 76 48 324 273 142 81 286 316 329 149 185 195 128 172 269 187 107 131 120 83 59 55 90 200 93 41 24 339 305 134 80 63 68 189 175 81 9 231 190 245 238 225 229 175 140 140 146 158 160 161 155 154 161 157 157 161 161 157 155 161 158 155 159 160 156 160 163 155 147 155 149 154 175 182 170 171 180 184 170 183 184 163 169 181
320 124 214 175 136 211 148 182 188 222 245 218 195 205 158 182 179 169 210 132 121 67 53 135 175 98 83 35 63 74 235 191 74 136 159 195 195 112 161 193 240 213 230 242 220 175 151 156 152 151 155 162 161 158 156 158 160 160 159 158 162 160 161 160 159 159 161 161 149 131 145 166 178 183 185 155 132 141 169 201 223 203 179 187 186 179 192
56 64 196 287 201 177 176 171 173 206 209 197 188 223 149 174 221 210 169 117 109 115 166 181 90 79 73 126 212 178 71 48 65 69 31 278 150 144 212 199 222 219 206 184 164 168 158 155 158 157 161 161 161 155 152 152 152 150 153 158 155 151 153 157 159 160 156 150 158 168 178 177 172 150 119 132 138 137 165 205 223 216 207 197 203 203 194